VK3GY-13 Weather Reports


Display with metric or nautical units.
time (UTC)temp
F
wind
direction
speed
MPH
gust
MPH
rain 1hr
in
rain 24hr
in
rain mn
in
humidity
%
barometer
mb
20260509023009 62 242 2.0 5.0 0.00 0.07 0.07 83 1026.3
20260509022009 62 237 3.0 8.0 0.00 0.07 0.07 83 1026.5
20260509021009 62 239 5.0 9.0 0.00 0.07 0.07 81 1026.6
20260509020010 62 241 5.0 9.0 0.00 0.07 0.07 81 1026.7
20260509015009 63 242 5.0 8.0 0.00 0.07 0.07 83 1026.7
20260509014009 62 237 4.0 7.0 0.00 0.07 0.07 87 1026.8
20260509013009 61 238 3.0 8.0 0.00 0.07 0.07 88 1026.9
20260509012009 61 249 4.0 7.0 0.00 0.07 0.07 90 1026.9
20260509011009 59 269 2.0 7.0 0.00 0.07 0.07 90 1027.0
20260509010009 59 261 3.0 7.0 0.00 0.07 0.07 90 1027.0
20260509005009 58 259 4.0 9.0 0.00 0.07 0.07 90 1027.1
20260509004009 59 266 4.0 10.0 0.00 0.07 0.07 91 1026.9
20260509003009 59 283 2.0 6.0 0.00 0.07 0.07 91 1026.9
20260509002009 58 284 2.0 6.0 0.00 0.07 0.07 91 1026.9
20260509001009 57 287 1.0 8.0 0.00 0.07 0.07 91 1026.8
20260509000009 57 281 2.0 3.0 0.00 0.07 0.07 91 1026.7
20260508235009 57 281 3.0 7.0 0.00 0.07 0.07 91 1026.7
20260508234009 57 282 2.0 7.0 0.01 0.07 0.07 91 1026.8
20260508233009 57 277 2.0 6.0 0.01 0.07 0.07 91 1026.8
20260508232010 56 273 3.0 7.0 0.01 0.07 0.07 91 1026.8
20260508231009 56 269 2.0 6.0 0.01 0.07 0.07 91 1026.8
20260508230009 55 269 2.0 3.0 0.01 0.07 0.07 91 1026.8
20260508225009 55 267 2.0 3.0 0.01 0.08 0.07 91 1026.7
20260508224009 54 267 2.0 3.0 0.00 0.07 0.06 91 1026.5
20260508223009 54 267 3.0 6.0 0.00 0.07 0.06 91 1026.4
20260508222009 54 266 2.0 6.0 0.00 0.07 0.06 91 1026.3
20260508221010 54 266 1.0 3.0 0.00 0.07 0.06 91 1026.2
20260508220009 54 266 3.0 3.0 0.00 0.07 0.06 91 1026.2
20260508215009 54 266 1.0 3.0 0.00 0.07 0.06 91 1026.1
20260508214009 54 264 2.0 3.0 0.00 0.07 0.06 91 1026.0
20260508213009 54 264 1.0 3.0 0.01 0.07 0.06 91 1025.9
20260508212009 54 264 1.0 2.0 0.01 0.07 0.06 91 1025.9
20260508211009 54 264 1.0 3.0 0.01 0.07 0.06 90 1025.7
20260508210009 54 263 1.0 2.0 0.01 0.07 0.06 90 1025.7
20260508205009 55 263 0.0 3.0 0.01 0.07 0.06 90 1025.7
20260508204009 54 263 1.0 3.0 0.03 0.07 0.06 91 1025.6
20260508203009 54 263 0.0 3.0 0.03 0.07 0.05 90 1025.5
20260508202011 54 263 1.0 3.0 0.03 0.09 0.05 90 1025.4
20260508201009 54 263 1.0 3.0 0.03 0.09 0.05 90 1025.3
20260508200009 54 263 2.0 6.0 0.03 0.09 0.05 90 1025.3
20260508195010 54 262 1.0 2.0 0.05 0.09 0.05 90 1025.2
20260508194010 54 262 0.0 1.0 0.03 0.07 0.03 90 1025.1
20260508193009 54 262 1.0 3.0 0.02 0.06 0.02 90 1024.9
20260508192009 54 263 1.0 2.0 0.02 0.06 0.02 90 1024.9
20260508191009 54 263 1.0 2.0 0.02 0.06 0.02 90 1024.8
20260508190010 54 263 0.0 1.0 0.02 0.06 0.02 90 1024.8
20260508185009 54 263 0.0 3.0 0.00 0.04 0.00 90 1024.7
20260508184009 54 263 0.0 6.0 0.00 0.06 0.00 90 1024.7
20260508183009 54 263 2.0 7.0 0.00 0.06 0.00 90 1024.5
20260508182009 54 263 3.0 6.0 0.00 0.08 0.00 90 1024.4
20260508181009 54 263 2.0 6.0 0.00 0.08 0.00 90 1024.3
20260508180009 54 263 2.0 9.0 0.00 0.08 0.00 90 1024.3
20260508175009 53 261 1.0 3.0 0.00 0.08 0.00 90 1024.3
20260508174009 53 260 2.0 3.0 0.00 0.10 0.00 90 1024.2
20260508173009 53 259 2.0 3.0 0.00 0.10 0.00 90 1024.2
20260508172009 53 259 2.0 3.0 0.00 0.11 0.00 90 1024.2
20260508171009 53 259 2.0 6.0 0.00 0.13 0.00 90 1024.3
20260508170009 52 259 0.0 2.0 0.00 0.13 0.00 90 1024.4
20260508165009 52 259 1.0 2.0 0.00 0.15 0.00 90 1024.3
20260508164009 52 259 1.0 3.0 0.00 0.16 0.00 90 1024.3
20260508163009 52 259 2.0 6.0 0.00 0.16 0.00 90 1024.2
20260508162010 52 259 2.0 6.0 0.00 0.16 0.00 90 1024.3
20260508161009 52 262 1.0 3.0 0.00 0.18 0.00 90 1024.2
20260508160009 51 261 3.0 6.0 0.00 0.18 0.00 90 1024.1
20260508155009 51 261 1.0 3.0 0.00 0.18 0.00 89 1024.1
20260508154009 51 261 0.0 2.0 0.00 0.22 0.00 89 1024.0
20260508153009 51 261 0.0 2.0 0.00 0.22 0.00 89 1024.0
20260508152010 51 261 1.0 2.0 0.00 0.23 0.00 89 1024.1
20260508151009 52 261 1.0 2.0 0.00 0.23 0.00 89 1024.1
20260508150009 52 261 1.0 3.0 0.00 0.24 0.00 89 1024.1
20260508145009 52 261 1.0 3.0 0.00 0.24 0.00 89 1024.2
20260508144009 52 261 2.0 3.0 0.00 0.25 0.00 89 1024.1
20260508143010 52 261 2.0 3.0 0.00 0.25 0.00 89 1024.1
20260508142009 53 261 2.0 3.0 0.00 0.25 0.00 89 1024.1
20260508141009 53 261 2.0 6.0 0.00 0.26 0.00 88 1024.2
20260508140009 53 260 2.0 3.0 0.00 0.26 0.00 88 1024.2
20260508135009 53 258 2.0 3.0 0.00 0.26 0.26 88 1024.1
20260508134009 54 258 2.0 3.0 0.00 0.26 0.26 88 1024.1
20260508133009 54 256 2.0 5.0 0.00 0.26 0.26 88 1024.1
20260508132009 54 256 1.0 3.0 0.00 0.26 0.26 88 1024.2
20260508131010 54 254 2.0 5.0 0.00 0.26 0.26 88 1024.1
20260508130009 55 252 3.0 8.0 0.00 0.27 0.26 88 1024.1
20260508125009 55 252 3.0 7.0 0.00 0.27 0.26 87 1024.3
20260508124009 55 236 3.0 7.0 0.00 0.27 0.26 87 1024.3
20260508123010 55 257 3.0 7.0 0.00 0.27 0.26 87 1024.3
20260508122009 55 266 3.0 7.0 0.00 0.27 0.26 88 1024.3
20260508121009 55 267 2.0 6.0 0.00 0.27 0.26 87 1024.4
20260508120009 55 239 2.0 5.0 0.00 0.27 0.26 87 1024.4
20260508115009 55 235 3.0 7.0 0.00 0.27 0.26 87 1024.3
20260508114009 55 253 2.0 5.0 0.00 0.27 0.26 87 1024.2
20260508113009 55 246 1.0 3.0 0.00 0.27 0.26 87 1024.0
20260508112009 55 243 1.0 5.0 0.00 0.27 0.26 87 1024.0
20260508111009 54 241 2.0 5.0 0.00 0.27 0.26 88 1023.9
20260508110010 54 242 1.0 5.0 0.00 0.27 0.26 88 1024.0
20260508105009 54 242 3.0 7.0 0.00 0.27 0.26 88 1023.9
20260508104009 55 243 4.0 8.0 0.00 0.27 0.26 88 1023.8
20260508103009 54 280 2.0 8.0 0.00 0.27 0.26 87 1023.8
20260508102009 54 271 5.0 9.0 0.00 0.28 0.26 86 1023.6
20260508101009 55 240 2.0 7.0 0.00 0.28 0.26 85 1023.6
20260508100009 55 229 5.0 9.0 0.00 0.28 0.26 86 1023.4
20260508095009 55 234 4.0 9.0 0.00 0.29 0.26 87 1023.3
20260508094009 55 249 6.0 12.0 0.00 0.29 0.26 88 1023.4
20260508093009 55 252 6.0 14.0 0.00 0.29 0.26 88 1023.4
20260508092009 55 273 3.0 7.0 0.00 0.29 0.26 88 1023.5
20260508091009 55 283 2.0 6.0 0.00 0.30 0.26 88 1023.4
20260508090009 55 286 3.0 7.0 0.00 0.30 0.26 87 1023.4
20260508085009 55 275 5.0 9.0 0.00 0.30 0.26 87 1023.3
20260508084010 55 258 3.0 10.0 0.00 0.30 0.26 87 1023.1
20260508083009 55 210 5.0 17.0 0.00 0.30 0.26 87 1023.0
20260508082009 55 239 9.0 14.0 0.00 0.30 0.26 88 1022.9
20260508081009 55 237 4.0 8.0 0.00 0.30 0.26 87 1022.8
20260508080009 55 257 4.0 10.0 0.00 0.30 0.26 86 1022.7
20260508075009 55 260 3.0 10.0 0.00 0.30 0.26 85 1022.5
20260508074010 55 239 3.0 10.0 0.00 0.30 0.26 85 1022.6
20260508073009 55 246 5.0 10.0 0.00 0.31 0.26 85 1022.3
20260508072009 55 243 5.0 12.0 0.00 0.32 0.26 85 1022.3
20260508071009 57 242 9.0 15.0 0.00 0.35 0.26 83 1022.3
20260508070009 57 248 2.0 8.0 0.00 0.35 0.26 83 1022.2
20260508065010 57 221 3.0 9.0 0.00 0.35 0.26 83 1022.1
20260508064009 57 258 5.0 12.0 0.00 0.35 0.26 83 1022.0
20260508063009 58 224 5.0 12.0 0.00 0.35 0.26 82 1021.8
20260508062009 58 199 5.0 12.0 0.00 0.35 0.26 79 1022.0
20260508061009 59 234 6.0 12.0 0.00 0.35 0.26 79 1021.9
20260508060009 58 226 7.0 12.0 0.00 0.35 0.26 78 1021.8
20260508055009 58 233 9.0 16.0 0.00 0.35 0.26 77 1021.8
20260508054009 59 217 5.0 13.0 0.00 0.36 0.26 77 1021.7
20260508053009 58 219 5.0 12.0 0.00 0.36 0.26 79 1021.7
20260508052010 57 233 5.0 21.0 0.00 0.36 0.26 80 1021.8
20260508051009 58 208 10.0 21.0 0.00 0.36 0.26 79 1022.0
20260508050009 59 225 8.0 15.0 0.00 0.36 0.26 76 1021.5
20260508045008 60 234 9.0 18.0 0.00 0.36 0.26 77 1021.6
20260508044009 60 212 7.0 15.0 0.00 0.36 0.26 80 1021.5
20260508043009 59 222 6.0 20.0 0.00 0.36 0.26 82 1021.5
20260508042009 58 218 7.0 15.0 0.00 0.36 0.26 82 1021.6
20260508041009 58 222 6.0 15.0 0.00 0.36 0.26 83 1021.5
20260508040009 57 209 7.0 13.0 0.00 0.36 0.26 85 1021.5
20260508035009 58 204 10.0 23.0 0.00 0.36 0.26 83 1021.5
20260508034009 59 207 7.0 16.0 0.00 0.36 0.26 84 1021.4
20260508033009 59 223 5.0 12.0 0.00 0.36 0.26 83 1021.3
20260508032009 60 218 7.0 18.0 0.00 0.36 0.26 80 1021.3
20260508031009 61 210 8.0 16.0 0.00 0.36 0.26 76 1021.2
20260508030009 61 220 7.0 15.0 0.00 0.40 0.26 82 1021.0
20260508025009 59 227 6.0 15.0 0.00 0.40 0.26 83 1021.0
20260508024009 59 238 8.0 16.0 0.00 0.40 0.26 84 1021.1